ラ・サグラ彗星

P/2009 T2 ( La Sagra )

English version
Home page
Updated on June 11, 2016

---------------------------------------------------------------------

・ プロフィール

発見日 2009年10月12日
発見光度 17.0等
発見者 J. Nomen (La Sagra Sky Survey)

・ 写真集

・ 軌道要素

Epoch 2010 Jan. 4.0 TT = JDT 2455200.5
T 2010 Jan. 12.84433 TT                                 MPCW
q   1.7547393            (2000.0)            P               Q
n   0.04707978     Peri.  215.47259     +0.35820646     -0.89166209
a   7.5959094      Node   215.98563     +0.92780149     +0.37307256
e   0.7689889      Incl.   28.10633     +0.10427139     -0.25642852
P  20.9
From 860 observations 2009 Sept. 18-2010 Mar. 19, mean residual 0".4.

・ 星図

・ 光度変化

        m1 = 11 + 5 logΔ + 20 log r(t + 10)

---------------------------------------------------------------------

軌道要素はM.P.E.C. 2016-D32に掲載されたものです。
星図はステラナビゲータ Ver.8 (アストロアーツ) で作成したものです。
光度グラフはComet for Windowsで作成したものです。

---------------------------------------------------------------------

Copyright(C) Seiichi Yoshida (comet@aerith.net). All rights reserved.